owner,sensor,date,latitude,longitude,vertical_datum,sea_water_practical_salinity,qcFlag 
WAVCIS,ioos:station:WAVCIS:CSI16:2,2009-03-06T23:30:00Z,29.4012,-89.0355,1.0,33.272,11111222 
WAVCIS,ioos:station:WAVCIS:CSI16:2,2009-03-06T23:45:00Z,29.4012,-89.0355,1.0,33.288,11111222 
WAVCIS,ioos:station:WAVCIS:CSI16:2,2009-03-07T00:00:00Z,29.4012,-89.0355,1.0,33.291,11111222 
WAVCIS,ioos:station:WAVCIS:CSI16:2,2009-03-07T00:15:00Z,29.4012,-89.0355,1.0,33.295,11111222 
WAVCIS,ioos:station:WAVCIS:CSI16:2,2009-03-07T00:30:00Z,29.4012,-89.0355,1.0,33.294,11111222 
WAVCIS,ioos:station:WAVCIS:CSI16:2,2009-03-07T00:45:00Z,29.4012,-89.0355,1.0,33.318,11111222 
WAVCIS,ioos:station:WAVCIS:CSI16:2,2009-03-07T01:00:00Z,29.4012,-89.0355,1.0,33.304,11111222 
WAVCIS,ioos:station:WAVCIS:CSI16:2,2009-03-07T01:15:00Z,29.4012,-89.0355,1.0,33.302,11111222 
WAVCIS,ioos:station:WAVCIS:CSI16:2,2009-03-07T01:30:00Z,29.4012,-89.0355,1.0,33.275,11111222 
WAVCIS,ioos:station:WAVCIS:CSI16:2,2009-03-07T01:45:00Z,29.4012,-89.0355,1.0,33.3,11111222 
WAVCIS,ioos:station:WAVCIS:CSI16:2,2009-03-07T02:00:00Z,29.4012,-89.0355,1.0,33.3,11111222 
WAVCIS,ioos:station:WAVCIS:CSI16:2,2009-03-07T02:15:00Z,29.4012,-89.0355,1.0,33.306,11111222 
WAVCIS,ioos:station:WAVCIS:CSI16:2,2009-03-07T02:30:00Z,29.4012,-89.0355,1.0,33.305,11111222 
WAVCIS,ioos:station:WAVCIS:CSI16:2,2009-03-07T02:45:00Z,29.4012,-89.0355,1.0,33.29,11111222 
WAVCIS,ioos:station:WAVCIS:CSI16:2,2009-03-07T03:00:00Z,29.4012,-89.0355,1.0,33.262,11111222 
WAVCIS,ioos:station:WAVCIS:CSI16:2,2009-03-07T03:15:00Z,29.4012,-89.0355,1.0,33.25,11111222 
WAVCIS,ioos:station:WAVCIS:CSI16:2,2009-03-07T03:30:00Z,29.4012,-89.0355,1.0,33.235,11111222 
WAVCIS,ioos:station:WAVCIS:CSI16:2,2009-03-07T03:45:00Z,29.4012,-89.0355,1.0,33.232,11111222 
WAVCIS,ioos:station:WAVCIS:CSI16:2,2009-03-07T04:00:00Z,29.4012,-89.0355,1.0,33.212,11111222 
WAVCIS,ioos:station:WAVCIS:CSI16:2,2009-03-07T04:15:00Z,29.4012,-89.0355,1.0,33.202,11111222 
WAVCIS,ioos:station:WAVCIS:CSI16:2,2009-03-07T04:30:00Z,29.4012,-89.0355,1.0,33.147,11111222 
WAVCIS,ioos:station:WAVCIS:CSI16:2,2009-03-07T04:45:00Z,29.4012,-89.0355,1.0,33.153,11111222 
WAVCIS,ioos:station:WAVCIS:CSI16:2,2009-03-07T05:00:00Z,29.4012,-89.0355,1.0,33.151,11111222 
WAVCIS,ioos:station:WAVCIS:CSI16:2,2009-03-07T05:15:00Z,29.4012,-89.0355,1.0,33.152,11111222 
WAVCIS,ioos:station:WAVCIS:CSI16:2,2009-03-07T05:30:00Z,29.4012,-89.0355,1.0,33.14,11111222 
WAVCIS,ioos:station:WAVCIS:CSI16:2,2009-03-07T05:45:00Z,29.4012,-89.0355,1.0,33.151,11111222 
WAVCIS,ioos:station:WAVCIS:CSI16:2,2009-03-07T06:00:00Z,29.4012,-89.0355,1.0,33.159,11111222 
WAVCIS,ioos:station:WAVCIS:CSI16:2,2009-03-07T06:15:00Z,29.4012,-89.0355,1.0,33.141,11111222 
WAVCIS,ioos:station:WAVCIS:CSI16:2,2009-03-07T06:30:00Z,29.4012,-89.0355,1.0,33.143,11111222 
WAVCIS,ioos:station:WAVCIS:CSI16:2,2009-03-07T06:45:00Z,29.4012,-89.0355,1.0,33.139,11111222 
WAVCIS,ioos:station:WAVCIS:CSI16:2,2009-03-07T07:00:00Z,29.4012,-89.0355,1.0,33.045,11111222 
WAVCIS,ioos:station:WAVCIS:CSI16:2,2009-03-07T07:15:00Z,29.4012,-89.0355,1.0,33.057,11111222 
WAVCIS,ioos:station:WAVCIS:CSI16:2,2009-03-07T07:30:00Z,29.4012,-89.0355,1.0,33.019,11111222 
WAVCIS,ioos:station:WAVCIS:CSI16:2,2009-03-07T07:45:00Z,29.4012,-89.0355,1.0,33.017,11111222 
WAVCIS,ioos:station:WAVCIS:CSI16:2,2009-03-07T08:00:00Z,29.4012,-89.0355,1.0,32.972,11111222 
WAVCIS,ioos:station:WAVCIS:CSI16:2,2009-03-07T08:15:00Z,29.4012,-89.0355,1.0,32.968,11111222 
WAVCIS,ioos:station:WAVCIS:CSI16:2,2009-03-07T08:30:00Z,29.4012,-89.0355,1.0,32.913,11111222 
WAVCIS,ioos:station:WAVCIS:CSI16:2,2009-03-07T08:45:00Z,29.4012,-89.0355,1.0,32.933,11111222 
WAVCIS,ioos:station:WAVCIS:CSI16:2,2009-03-07T09:00:00Z,29.4012,-89.0355,1.0,32.93,11111222 
WAVCIS,ioos:station:WAVCIS:CSI16:2,2009-03-07T09:15:00Z,29.4012,-89.0355,1.0,32.917,11111222 
WAVCIS,ioos:station:WAVCIS:CSI16:2,2009-03-07T09:30:00Z,29.4012,-89.0355,1.0,32.904,11111222 
WAVCIS,ioos:station:WAVCIS:CSI16:2,2009-03-07T09:45:00Z,29.4012,-89.0355,1.0,32.84,11111222 
WAVCIS,ioos:station:WAVCIS:CSI16:2,2009-03-07T10:00:00Z,29.4012,-89.0355,1.0,32.806,11111222 
WAVCIS,ioos:station:WAVCIS:CSI16:2,2009-03-07T10:15:00Z,29.4012,-89.0355,1.0,32.819,11111222 
WAVCIS,ioos:station:WAVCIS:CSI16:2,2009-03-07T10:30:00Z,29.4012,-89.0355,1.0,32.852,11111222 
WAVCIS,ioos:station:WAVCIS:CSI16:2,2009-03-07T10:45:00Z,29.4012,-89.0355,1.0,32.922,11111222 
WAVCIS,ioos:station:WAVCIS:CSI16:2,2009-03-07T11:00:00Z,29.4012,-89.0355,1.0,32.997,11111222 
WAVCIS,ioos:station:WAVCIS:CSI16:2,2009-03-07T11:15:00Z,29.4012,-89.0355,1.0,33.061,11111222 
WAVCIS,ioos:station:WAVCIS:CSI16:2,2009-03-07T11:30:00Z,29.4012,-89.0355,1.0,33.079,11111222 
WAVCIS,ioos:station:WAVCIS:CSI16:2,2009-03-07T11:45:00Z,29.4012,-89.0355,1.0,33.045,11111222 
WAVCIS,ioos:station:WAVCIS:CSI16:2,2009-03-07T12:00:00Z,29.4012,-89.0355,1.0,33.066,11111222 
WAVCIS,ioos:station:WAVCIS:CSI16:2,2009-03-07T12:15:00Z,29.4012,-89.0355,1.0,32.992,11111222 
WAVCIS,ioos:station:WAVCIS:CSI16:2,2009-03-07T12:30:00Z,29.4012,-89.0355,1.0,32.914,11111222 
WAVCIS,ioos:station:WAVCIS:CSI16:2,2009-03-07T12:45:00Z,29.4012,-89.0355,1.0,32.954,11111222 
WAVCIS,ioos:station:WAVCIS:CSI16:2,2009-03-07T13:00:00Z,29.4012,-89.0355,1.0,32.968,11111222 
WAVCIS,ioos:station:WAVCIS:CSI16:2,2009-03-07T13:15:00Z,29.4012,-89.0355,1.0,33.014,11111222 
WAVCIS,ioos:station:WAVCIS:CSI16:2,2009-03-07T13:30:00Z,29.4012,-89.0355,1.0,32.973,11111222 
WAVCIS,ioos:station:WAVCIS:CSI16:2,2009-03-07T13:45:00Z,29.4012,-89.0355,1.0,33.017,11111222 
WAVCIS,ioos:station:WAVCIS:CSI16:2,2009-03-07T14:00:00Z,29.4012,-89.0355,1.0,33.0,11111222 
WAVCIS,ioos:station:WAVCIS:CSI16:2,2009-03-07T14:15:00Z,29.4012,-89.0355,1.0,33.019,11111222 
WAVCIS,ioos:station:WAVCIS:CSI16:2,2009-03-07T14:30:00Z,29.4012,-89.0355,1.0,33.088,11111222 
WAVCIS,ioos:station:WAVCIS:CSI16:2,2009-03-07T14:45:00Z,29.4012,-89.0355,1.0,33.08,11111222 
WAVCIS,ioos:station:WAVCIS:CSI16:2,2009-03-07T15:00:00Z,29.4012,-89.0355,1.0,33.098,11111222 
WAVCIS,ioos:station:WAVCIS:CSI16:2,2009-03-07T15:15:00Z,29.4012,-89.0355,1.0,33.082,11111222 
WAVCIS,ioos:station:WAVCIS:CSI16:2,2009-03-07T15:30:00Z,29.4012,-89.0355,1.0,33.099,11111222 
WAVCIS,ioos:station:WAVCIS:CSI16:2,2009-03-07T15:45:00Z,29.4012,-89.0355,1.0,33.08,11111222 
WAVCIS,ioos:station:WAVCIS:CSI16:2,2009-03-07T16:00:00Z,29.4012,-89.0355,1.0,33.12,11111222 
WAVCIS,ioos:station:WAVCIS:CSI16:2,2009-03-07T16:15:00Z,29.4012,-89.0355,1.0,33.103,11111222 
WAVCIS,ioos:station:WAVCIS:CSI16:2,2009-03-07T16:30:00Z,29.4012,-89.0355,1.0,33.105,11111222 
WAVCIS,ioos:station:WAVCIS:CSI16:2,2009-03-07T16:45:00Z,29.4012,-89.0355,1.0,33.116,11111222 
WAVCIS,ioos:station:WAVCIS:CSI16:2,2009-03-07T17:00:00Z,29.4012,-89.0355,1.0,33.118,11111222 
WAVCIS,ioos:station:WAVCIS:CSI16:2,2009-03-07T17:15:00Z,29.4012,-89.0355,1.0,33.125,11111222 
WAVCIS,ioos:station:WAVCIS:CSI16:2,2009-03-07T17:30:00Z,29.4012,-89.0355,1.0,33.15,11111222 
WAVCIS,ioos:station:WAVCIS:CSI16:2,2009-03-07T17:45:00Z,29.4012,-89.0355,1.0,33.16,11111222 
WAVCIS,ioos:station:WAVCIS:CSI16:2,2009-03-07T18:00:00Z,29.4012,-89.0355,1.0,33.176,11111222 
WAVCIS,ioos:station:WAVCIS:CSI16:2,2009-03-07T18:15:00Z,29.4012,-89.0355,1.0,33.199,11111222 
WAVCIS,ioos:station:WAVCIS:CSI16:2,2009-03-07T18:30:00Z,29.4012,-89.0355,1.0,33.234,11111222 
WAVCIS,ioos:station:WAVCIS:CSI16:2,2009-03-07T18:45:00Z,29.4012,-89.0355,1.0,33.248,11111222 
WAVCIS,ioos:station:WAVCIS:CSI16:2,2009-03-07T19:00:00Z,29.4012,-89.0355,1.0,33.277,11111222 
WAVCIS,ioos:station:WAVCIS:CSI16:2,2009-03-07T19:15:00Z,29.4012,-89.0355,1.0,33.281,11111222 
WAVCIS,ioos:station:WAVCIS:CSI16:2,2009-03-07T19:30:00Z,29.4012,-89.0355,1.0,33.323,11111222 
WAVCIS,ioos:station:WAVCIS:CSI16:2,2009-03-07T19:45:00Z,29.4012,-89.0355,1.0,33.315,11111222 
WAVCIS,ioos:station:WAVCIS:CSI16:2,2009-03-07T20:00:00Z,29.4012,-89.0355,1.0,33.51,11111222 
WAVCIS,ioos:station:WAVCIS:CSI16:2,2009-03-07T20:15:00Z,29.4012,-89.0355,1.0,33.344,11111222 
WAVCIS,ioos:station:WAVCIS:CSI16:2,2009-03-07T21:30:00Z,29.4012,-89.0355,1.0,33.595,11111222 
WAVCIS,ioos:station:WAVCIS:CSI16:2,2009-03-07T21:45:00Z,29.4012,-89.0355,1.0,33.76,11111222 
WAVCIS,ioos:station:WAVCIS:CSI16:2,2009-03-07T22:00:00Z,29.4012,-89.0355,1.0,33.929,11111222 
WAVCIS,ioos:station:WAVCIS:CSI16:2,2009-03-07T22:15:00Z,29.4012,-89.0355,1.0,33.528,11111222 
WAVCIS,ioos:station:WAVCIS:CSI16:2,2009-03-07T22:30:00Z,29.4012,-89.0355,1.0,32.895,11111222 
WAVCIS,ioos:station:WAVCIS:CSI16:2,2009-03-07T22:45:00Z,29.4012,-89.0355,1.0,33.705,11111222 
WAVCIS,ioos:station:WAVCIS:CSI16:2,2009-03-07T23:00:00Z,29.4012,-89.0355,1.0,33.644,11111222 
WAVCIS,ioos:station:WAVCIS:CSI16:2,2009-03-07T23:15:00Z,29.4012,-89.0355,1.0,33.615,11111222 
WAVCIS,ioos:station:WAVCIS:CSI16:2,2009-03-07T23:30:00Z,29.4012,-89.0355,1.0,33.64,11111222 
WAVCIS,ioos:station:WAVCIS:CSI16:2,2009-03-07T23:45:00Z,29.4012,-89.0355,1.0,33.649,11111222 
WAVCIS,ioos:station:WAVCIS:CSI16:2,2009-03-08T00:00:00Z,29.4012,-89.0355,1.0,33.764,11111222 
WAVCIS,ioos:station:WAVCIS:CSI16:2,2009-03-08T00:15:00Z,29.4012,-89.0355,1.0,33.665,11111222 
WAVCIS,ioos:station:WAVCIS:CSI16:2,2009-03-08T00:30:00Z,29.4012,-89.0355,1.0,33.675,11111222 
WAVCIS,ioos:station:WAVCIS:CSI16:2,2009-03-08T00:45:00Z,29.4012,-89.0355,1.0,33.695,11111222 
WAVCIS,ioos:station:WAVCIS:CSI16:2,2009-03-08T01:00:00Z,29.4012,-89.0355,1.0,33.754,11111222 
WAVCIS,ioos:station:WAVCIS:CSI16:2,2009-03-08T01:15:00Z,29.4012,-89.0355,1.0,33.793,11111222 
WAVCIS,ioos:station:WAVCIS:CSI16:2,2009-03-08T01:30:00Z,29.4012,-89.0355,1.0,33.811,11111222 
WAVCIS,ioos:station:WAVCIS:CSI16:2,2009-03-08T01:45:00Z,29.4012,-89.0355,1.0,33.861,11111222 
WAVCIS,ioos:station:WAVCIS:CSI16:2,2009-03-08T02:00:00Z,29.4012,-89.0355,1.0,33.899,11111222 
WAVCIS,ioos:station:WAVCIS:CSI16:2,2009-03-08T02:15:00Z,29.4012,-89.0355,1.0,33.917,11111222 
WAVCIS,ioos:station:WAVCIS:CSI16:2,2009-03-08T02:30:00Z,29.4012,-89.0355,1.0,33.912,11111222 
WAVCIS,ioos:station:WAVCIS:CSI16:2,2009-03-08T02:45:00Z,29.4012,-89.0355,1.0,33.898,11111222 
WAVCIS,ioos:station:WAVCIS:CSI16:2,2009-03-08T03:00:00Z,29.4012,-89.0355,1.0,33.913,11111222 
WAVCIS,ioos:station:WAVCIS:CSI16:2,2009-03-08T03:15:00Z,29.4012,-89.0355,1.0,33.907,11111222 
WAVCIS,ioos:station:WAVCIS:CSI16:2,2009-03-08T03:30:00Z,29.4012,-89.0355,1.0,33.941,11111222 
WAVCIS,ioos:station:WAVCIS:CSI16:2,2009-03-08T03:45:00Z,29.4012,-89.0355,1.0,33.894,11111222 
WAVCIS,ioos:station:WAVCIS:CSI16:2,2009-03-08T04:00:00Z,29.4012,-89.0355,1.0,33.908,11111222 
WAVCIS,ioos:station:WAVCIS:CSI16:2,2009-03-08T04:15:00Z,29.4012,-89.0355,1.0,33.904,11111222 
WAVCIS,ioos:station:WAVCIS:CSI16:2,2009-03-08T04:30:00Z,29.4012,-89.0355,1.0,33.804,11111222 
WAVCIS,ioos:station:WAVCIS:CSI16:2,2009-03-08T04:45:00Z,29.4012,-89.0355,1.0,33.865,11111222 
WAVCIS,ioos:station:WAVCIS:CSI16:2,2009-03-08T05:00:00Z,29.4012,-89.0355,1.0,33.824,11111222 
WAVCIS,ioos:station:WAVCIS:CSI16:2,2009-03-08T05:15:00Z,29.4012,-89.0355,1.0,33.782,11111222 
WAVCIS,ioos:station:WAVCIS:CSI16:2,2009-03-08T05:30:00Z,29.4012,-89.0355,1.0,33.767,11111222 
WAVCIS,ioos:station:WAVCIS:CSI16:2,2009-03-08T05:45:00Z,29.4012,-89.0355,1.0,33.727,11111222 
WAVCIS,ioos:station:WAVCIS:CSI16:2,2009-03-08T06:00:00Z,29.4012,-89.0355,1.0,33.628,11111222 
WAVCIS,ioos:station:WAVCIS:CSI16:2,2009-03-08T06:15:00Z,29.4012,-89.0355,1.0,33.589,11111222 
WAVCIS,ioos:station:WAVCIS:CSI16:2,2009-03-08T06:30:00Z,29.4012,-89.0355,1.0,33.518,11111222 
WAVCIS,ioos:station:WAVCIS:CSI16:2,2009-03-08T06:45:00Z,29.4012,-89.0355,1.0,33.536,11111222 
WAVCIS,ioos:station:WAVCIS:CSI16:2,2009-03-08T07:00:00Z,29.4012,-89.0355,1.0,33.527,11111222 
WAVCIS,ioos:station:WAVCIS:CSI16:2,2009-03-08T07:15:00Z,29.4012,-89.0355,1.0,33.549,11111222 
WAVCIS,ioos:station:WAVCIS:CSI16:2,2009-03-08T07:30:00Z,29.4012,-89.0355,1.0,33.55,11111222 
WAVCIS,ioos:station:WAVCIS:CSI16:2,2009-03-08T07:45:00Z,29.4012,-89.0355,1.0,33.586,11111222 
WAVCIS,ioos:station:WAVCIS:CSI16:2,2009-03-08T08:00:00Z,29.4012,-89.0355,1.0,33.563,11111222 
WAVCIS,ioos:station:WAVCIS:CSI16:2,2009-03-08T08:15:00Z,29.4012,-89.0355,1.0,33.54,11111222 
WAVCIS,ioos:station:WAVCIS:CSI16:2,2009-03-08T08:30:00Z,29.4012,-89.0355,1.0,33.552,11111222 
WAVCIS,ioos:station:WAVCIS:CSI16:2,2009-03-08T08:45:00Z,29.4012,-89.0355,1.0,33.479,11111222 
WAVCIS,ioos:station:WAVCIS:CSI16:2,2009-03-08T09:00:00Z,29.4012,-89.0355,1.0,33.447,11111222 
WAVCIS,ioos:station:WAVCIS:CSI16:2,2009-03-08T09:15:00Z,29.4012,-89.0355,1.0,33.404,11111222 
WAVCIS,ioos:station:WAVCIS:CSI16:2,2009-03-08T09:30:00Z,29.4012,-89.0355,1.0,33.461,11111222 
WAVCIS,ioos:station:WAVCIS:CSI16:2,2009-03-08T09:45:00Z,29.4012,-89.0355,1.0,33.368,11111222 
WAVCIS,ioos:station:WAVCIS:CSI16:2,2009-03-08T10:00:00Z,29.4012,-89.0355,1.0,33.383,11111222 
WAVCIS,ioos:station:WAVCIS:CSI16:2,2009-03-08T10:15:00Z,29.4012,-89.0355,1.0,33.384,11111222 
WAVCIS,ioos:station:WAVCIS:CSI16:2,2009-03-08T10:30:00Z,29.4012,-89.0355,1.0,33.367,11111222 
WAVCIS,ioos:station:WAVCIS:CSI16:2,2009-03-08T10:45:00Z,29.4012,-89.0355,1.0,33.364,11111222 
WAVCIS,ioos:station:WAVCIS:CSI16:2,2009-03-08T11:00:00Z,29.4012,-89.0355,1.0,33.349,11111222 
WAVCIS,ioos:station:WAVCIS:CSI16:2,2009-03-08T11:15:00Z,29.4012,-89.0355,1.0,33.366,11111222 
WAVCIS,ioos:station:WAVCIS:CSI16:2,2009-03-08T11:30:00Z,29.4012,-89.0355,1.0,33.346,11111222 
WAVCIS,ioos:station:WAVCIS:CSI16:2,2009-03-08T11:45:00Z,29.4012,-89.0355,1.0,33.358,11111222 
WAVCIS,ioos:station:WAVCIS:CSI16:2,2009-03-08T12:00:00Z,29.4012,-89.0355,1.0,33.371,11111222 
WAVCIS,ioos:station:WAVCIS:CSI16:2,2009-03-08T12:15:00Z,29.4012,-89.0355,1.0,33.354,11111222 
WAVCIS,ioos:station:WAVCIS:CSI16:2,2009-03-08T12:30:00Z,29.4012,-89.0355,1.0,33.367,11111222 
WAVCIS,ioos:station:WAVCIS:CSI16:2,2009-03-08T12:45:00Z,29.4012,-89.0355,1.0,33.372,11111222 
WAVCIS,ioos:station:WAVCIS:CSI16:2,2009-03-08T13:00:00Z,29.4012,-89.0355,1.0,33.373,11111222 
WAVCIS,ioos:station:WAVCIS:CSI16:2,2009-03-08T13:15:00Z,29.4012,-89.0355,1.0,33.382,11111222 
WAVCIS,ioos:station:WAVCIS:CSI16:2,2009-03-08T13:30:00Z,29.4012,-89.0355,1.0,33.427,11111222 
WAVCIS,ioos:station:WAVCIS:CSI16:2,2009-03-08T13:45:00Z,29.4012,-89.0355,1.0,33.467,11111222 
WAVCIS,ioos:station:WAVCIS:CSI16:2,2009-03-08T14:00:00Z,29.4012,-89.0355,1.0,33.478,11111222 
WAVCIS,ioos:station:WAVCIS:CSI16:2,2009-03-08T14:15:00Z,29.4012,-89.0355,1.0,33.513,11111222 
WAVCIS,ioos:station:WAVCIS:CSI16:2,2009-03-08T14:30:00Z,29.4012,-89.0355,1.0,33.551,11111222 
WAVCIS,ioos:station:WAVCIS:CSI16:2,2009-03-08T14:45:00Z,29.4012,-89.0355,1.0,33.576,11111222 
WAVCIS,ioos:station:WAVCIS:CSI16:2,2009-03-08T15:00:00Z,29.4012,-89.0355,1.0,33.597,11111222 
WAVCIS,ioos:station:WAVCIS:CSI16:2,2009-03-08T15:15:00Z,29.4012,-89.0355,1.0,33.609,11111222 
WAVCIS,ioos:station:WAVCIS:CSI16:2,2009-03-08T15:30:00Z,29.4012,-89.0355,1.0,33.618,11111222 
WAVCIS,ioos:station:WAVCIS:CSI16:2,2009-03-08T15:45:00Z,29.4012,-89.0355,1.0,33.647,11111222 
WAVCIS,ioos:station:WAVCIS:CSI16:2,2009-03-08T16:00:00Z,29.4012,-89.0355,1.0,33.652,11111222 
WAVCIS,ioos:station:WAVCIS:CSI16:2,2009-03-08T16:15:00Z,29.4012,-89.0355,1.0,33.653,11111222 
WAVCIS,ioos:station:WAVCIS:CSI16:2,2009-03-08T16:30:00Z,29.4012,-89.0355,1.0,33.662,11111222 
WAVCIS,ioos:station:WAVCIS:CSI16:2,2009-03-08T16:45:00Z,29.4012,-89.0355,1.0,33.673,11111222 
WAVCIS,ioos:station:WAVCIS:CSI16:2,2009-03-08T17:00:00Z,29.4012,-89.0355,1.0,33.68,11111222 
WAVCIS,ioos:station:WAVCIS:CSI16:2,2009-03-08T17:15:00Z,29.4012,-89.0355,1.0,33.684,11111222 
WAVCIS,ioos:station:WAVCIS:CSI16:2,2009-03-08T17:30:00Z,29.4012,-89.0355,1.0,33.681,11111222 
WAVCIS,ioos:station:WAVCIS:CSI16:2,2009-03-08T17:45:00Z,29.4012,-89.0355,1.0,33.687,11111222 
WAVCIS,ioos:station:WAVCIS:CSI16:2,2009-03-08T18:00:00Z,29.4012,-89.0355,1.0,33.68,11111222 
WAVCIS,ioos:station:WAVCIS:CSI16:2,2009-03-08T18:15:00Z,29.4012,-89.0355,1.0,33.673,11111222 
WAVCIS,ioos:station:WAVCIS:CSI16:2,2009-03-08T18:30:00Z,29.4012,-89.0355,1.0,33.674,11111222 
WAVCIS,ioos:station:WAVCIS:CSI16:2,2009-03-08T18:45:00Z,29.4012,-89.0355,1.0,33.673,11111222 
WAVCIS,ioos:station:WAVCIS:CSI16:2,2009-03-08T19:00:00Z,29.4012,-89.0355,1.0,33.672,11111222 
WAVCIS,ioos:station:WAVCIS:CSI16:2,2009-03-08T19:15:00Z,29.4012,-89.0355,1.0,33.668,11111222 
WAVCIS,ioos:station:WAVCIS:CSI16:2,2009-03-08T19:30:00Z,29.4012,-89.0355,1.0,33.652,11111222 
WAVCIS,ioos:station:WAVCIS:CSI16:2,2009-03-08T19:45:00Z,29.4012,-89.0355,1.0,33.661,11111222 
WAVCIS,ioos:station:WAVCIS:CSI16:2,2009-03-08T20:00:00Z,29.4012,-89.0355,1.0,33.641,11111222 
WAVCIS,ioos:station:WAVCIS:CSI16:2,2009-03-08T20:15:00Z,29.4012,-89.0355,1.0,33.653,11111222 
WAVCIS,ioos:station:WAVCIS:CSI16:2,2009-03-08T20:30:00Z,29.4012,-89.0355,1.0,33.623,11111222 
WAVCIS,ioos:station:WAVCIS:CSI16:2,2009-03-08T20:45:00Z,29.4012,-89.0355,1.0,33.626,11111222 
WAVCIS,ioos:station:WAVCIS:CSI16:2,2009-03-08T21:00:00Z,29.4012,-89.0355,1.0,33.606,11111222 
WAVCIS,ioos:station:WAVCIS:CSI16:2,2009-03-08T21:15:00Z,29.4012,-89.0355,1.0,33.645,11111222 
WAVCIS,ioos:station:WAVCIS:CSI16:2,2009-03-08T21:30:00Z,29.4012,-89.0355,1.0,33.646,11111222 
WAVCIS,ioos:station:WAVCIS:CSI16:2,2009-03-08T21:45:00Z,29.4012,-89.0355,1.0,33.645,11111222 
WAVCIS,ioos:station:WAVCIS:CSI16:2,2009-03-08T22:00:00Z,29.4012,-89.0355,1.0,33.48,11111222 
WAVCIS,ioos:station:WAVCIS:CSI16:2,2009-03-08T22:15:00Z,29.4012,-89.0355,1.0,33.616,11111222 
WAVCIS,ioos:station:WAVCIS:CSI16:2,2009-03-08T22:30:00Z,29.4012,-89.0355,1.0,33.557,11111222 
WAVCIS,ioos:station:WAVCIS:CSI16:2,2009-03-08T22:45:00Z,29.4012,-89.0355,1.0,33.514,11111222 
WAVCIS,ioos:station:WAVCIS:CSI16:2,2009-03-08T23:00:00Z,29.4012,-89.0355,1.0,33.491,11111222 
WAVCIS,ioos:station:WAVCIS:CSI16:2,2009-03-08T23:15:00Z,29.4012,-89.0355,1.0,33.407,11111222 
WAVCIS,ioos:station:WAVCIS:CSI16:2,2009-03-08T23:30:00Z,29.4012,-89.0355,1.0,33.685,11111222 
WAVCIS,ioos:station:WAVCIS:CSI16:2,2009-03-08T23:45:00Z,29.4012,-89.0355,1.0,33.507,11111222 
WAVCIS,ioos:station:WAVCIS:CSI16:2,2009-03-09T00:00:00Z,29.4012,-89.0355,1.0,33.633,11111222 
WAVCIS,ioos:station:WAVCIS:CSI16:2,2009-03-09T00:15:00Z,29.4012,-89.0355,1.0,33.558,11111222 
WAVCIS,ioos:station:WAVCIS:CSI16:2,2009-03-09T00:30:00Z,29.4012,-89.0355,1.0,33.581,11111222 
WAVCIS,ioos:station:WAVCIS:CSI16:2,2009-03-09T00:45:00Z,29.4012,-89.0355,1.0,33.592,11111222 
WAVCIS,ioos:station:WAVCIS:CSI16:2,2009-03-09T01:00:00Z,29.4012,-89.0355,1.0,33.599,11111222 
WAVCIS,ioos:station:WAVCIS:CSI16:2,2009-03-09T01:15:00Z,29.4012,-89.0355,1.0,33.626,11111222 
WAVCIS,ioos:station:WAVCIS:CSI16:2,2009-03-09T01:30:00Z,29.4012,-89.0355,1.0,33.589,11111222 
WAVCIS,ioos:station:WAVCIS:CSI16:2,2009-03-09T01:45:00Z,29.4012,-89.0355,1.0,33.609,11111222 
WAVCIS,ioos:station:WAVCIS:CSI16:2,2009-03-09T02:00:00Z,29.4012,-89.0355,1.0,33.601,11111222 
WAVCIS,ioos:station:WAVCIS:CSI16:2,2009-03-09T02:15:00Z,29.4012,-89.0355,1.0,33.586,11111222 
WAVCIS,ioos:station:WAVCIS:CSI16:2,2009-03-09T03:30:00Z,29.4012,-89.0355,1.0,33.603,11111222 
WAVCIS,ioos:station:WAVCIS:CSI16:2,2009-03-09T03:45:00Z,29.4012,-89.0355,1.0,33.594,11111222 
WAVCIS,ioos:station:WAVCIS:CSI16:2,2009-03-09T04:00:00Z,29.4012,-89.0355,1.0,33.563,11111222 
WAVCIS,ioos:station:WAVCIS:CSI16:2,2009-03-09T04:15:00Z,29.4012,-89.0355,1.0,33.56,11111222 
WAVCIS,ioos:station:WAVCIS:CSI16:2,2009-03-09T04:30:00Z,29.4012,-89.0355,1.0,33.543,11111222 
WAVCIS,ioos:station:WAVCIS:CSI16:2,2009-03-09T04:45:00Z,29.4012,-89.0355,1.0,33.528,11111222 
WAVCIS,ioos:station:WAVCIS:CSI16:2,2009-03-09T05:00:00Z,29.4012,-89.0355,1.0,33.52,11111222 
WAVCIS,ioos:station:WAVCIS:CSI16:2,2009-03-09T05:15:00Z,29.4012,-89.0355,1.0,33.525,11111222 
WAVCIS,ioos:station:WAVCIS:CSI16:2,2009-03-09T05:30:00Z,29.4012,-89.0355,1.0,33.533,11111222 
WAVCIS,ioos:station:WAVCIS:CSI16:2,2009-03-09T05:45:00Z,29.4012,-89.0355,1.0,33.501,11111222 
WAVCIS,ioos:station:WAVCIS:CSI16:2,2009-03-09T06:00:00Z,29.4012,-89.0355,1.0,33.495,11111222 
WAVCIS,ioos:station:WAVCIS:CSI16:2,2009-03-09T06:15:00Z,29.4012,-89.0355,1.0,33.488,11111222 
WAVCIS,ioos:station:WAVCIS:CSI16:2,2009-03-09T06:30:00Z,29.4012,-89.0355,1.0,33.484,11111222 
WAVCIS,ioos:station:WAVCIS:CSI16:2,2009-03-09T06:45:00Z,29.4012,-89.0355,1.0,33.476,11111222 
WAVCIS,ioos:station:WAVCIS:CSI16:2,2009-03-09T07:00:00Z,29.4012,-89.0355,1.0,33.472,11111222 
WAVCIS,ioos:station:WAVCIS:CSI16:2,2009-03-09T07:15:00Z,29.4012,-89.0355,1.0,33.465,11111222 
WAVCIS,ioos:station:WAVCIS:CSI16:2,2009-03-09T07:30:00Z,29.4012,-89.0355,1.0,33.454,11111222 
WAVCIS,ioos:station:WAVCIS:CSI16:2,2009-03-09T07:45:00Z,29.4012,-89.0355,1.0,33.459,11111222 
WAVCIS,ioos:station:WAVCIS:CSI16:2,2009-03-09T08:00:00Z,29.4012,-89.0355,1.0,33.455,11111222 
WAVCIS,ioos:station:WAVCIS:CSI16:2,2009-03-09T08:15:00Z,29.4012,-89.0355,1.0,33.446,11111222 
WAVCIS,ioos:station:WAVCIS:CSI16:2,2009-03-09T08:30:00Z,29.4012,-89.0355,1.0,33.446,11111222 
WAVCIS,ioos:station:WAVCIS:CSI16:2,2009-03-09T08:45:00Z,29.4012,-89.0355,1.0,33.439,11111222 
WAVCIS,ioos:station:WAVCIS:CSI16:2,2009-03-09T09:00:00Z,29.4012,-89.0355,1.0,33.444,11111222 
WAVCIS,ioos:station:WAVCIS:CSI16:2,2009-03-09T09:15:00Z,29.4012,-89.0355,1.0,33.465,11111222 
WAVCIS,ioos:station:WAVCIS:CSI16:2,2009-03-09T09:30:00Z,29.4012,-89.0355,1.0,33.445,11111222 
WAVCIS,ioos:station:WAVCIS:CSI16:2,2009-03-09T09:45:00Z,29.4012,-89.0355,1.0,33.453,11111222 
WAVCIS,ioos:station:WAVCIS:CSI16:2,2009-03-09T10:00:00Z,29.4012,-89.0355,1.0,33.451,11111222 
WAVCIS,ioos:station:WAVCIS:CSI16:2,2009-03-09T10:15:00Z,29.4012,-89.0355,1.0,33.456,11111222 
WAVCIS,ioos:station:WAVCIS:CSI16:2,2009-03-09T10:30:00Z,29.4012,-89.0355,1.0,33.46,11111222 
WAVCIS,ioos:station:WAVCIS:CSI16:2,2009-03-09T10:45:00Z,29.4012,-89.0355,1.0,33.465,11111222 
WAVCIS,ioos:station:WAVCIS:CSI16:2,2009-03-09T11:00:00Z,29.4012,-89.0355,1.0,33.464,11111222 
WAVCIS,ioos:station:WAVCIS:CSI16:2,2009-03-09T11:15:00Z,29.4012,-89.0355,1.0,33.462,11111222 
WAVCIS,ioos:station:WAVCIS:CSI16:2,2009-03-09T11:30:00Z,29.4012,-89.0355,1.0,33.461,11111222 
WAVCIS,ioos:station:WAVCIS:CSI16:2,2009-03-09T11:45:00Z,29.4012,-89.0355,1.0,33.458,11111222 
WAVCIS,ioos:station:WAVCIS:CSI16:2,2009-03-09T12:00:00Z,29.4012,-89.0355,1.0,33.469,11111222 
WAVCIS,ioos:station:WAVCIS:CSI16:2,2009-03-09T12:15:00Z,29.4012,-89.0355,1.0,33.454,11111222 
WAVCIS,ioos:station:WAVCIS:CSI16:2,2009-03-09T12:30:00Z,29.4012,-89.0355,1.0,33.467,11111222 
WAVCIS,ioos:station:WAVCIS:CSI16:2,2009-03-09T12:45:00Z,29.4012,-89.0355,1.0,33.463,11111222 
WAVCIS,ioos:station:WAVCIS:CSI16:2,2009-03-09T13:00:00Z,29.4012,-89.0355,1.0,33.463,11111222 
WAVCIS,ioos:station:WAVCIS:CSI16:2,2009-03-09T13:15:00Z,29.4012,-89.0355,1.0,33.467,11111222 
WAVCIS,ioos:station:WAVCIS:CSI16:2,2009-03-09T13:30:00Z,29.4012,-89.0355,1.0,33.459,11111222 
WAVCIS,ioos:station:WAVCIS:CSI16:2,2009-03-09T13:45:00Z,29.4012,-89.0355,1.0,33.461,11111222 
WAVCIS,ioos:station:WAVCIS:CSI16:2,2009-03-09T14:00:00Z,29.4012,-89.0355,1.0,33.464,11111222 
WAVCIS,ioos:station:WAVCIS:CSI16:2,2009-03-09T14:15:00Z,29.4012,-89.0355,1.0,33.462,11111222 
WAVCIS,ioos:station:WAVCIS:CSI16:2,2009-03-09T14:30:00Z,29.4012,-89.0355,1.0,33.464,11111222 
WAVCIS,ioos:station:WAVCIS:CSI16:2,2009-03-09T14:45:00Z,29.4012,-89.0355,1.0,33.463,11111222 
WAVCIS,ioos:station:WAVCIS:CSI16:2,2009-03-09T15:00:00Z,29.4012,-89.0355,1.0,33.457,11111222 
WAVCIS,ioos:station:WAVCIS:CSI16:2,2009-03-09T15:15:00Z,29.4012,-89.0355,1.0,33.451,11111222 
WAVCIS,ioos:station:WAVCIS:CSI16:2,2009-03-09T15:30:00Z,29.4012,-89.0355,1.0,33.442,11111222 
WAVCIS,ioos:station:WAVCIS:CSI16:2,2009-03-09T15:45:00Z,29.4012,-89.0355,1.0,33.447,11111222 
WAVCIS,ioos:station:WAVCIS:CSI16:2,2009-03-09T16:00:00Z,29.4012,-89.0355,1.0,33.439,11111222 
WAVCIS,ioos:station:WAVCIS:CSI16:2,2009-03-09T16:15:00Z,29.4012,-89.0355,1.0,33.44,11111222 
WAVCIS,ioos:station:WAVCIS:CSI16:2,2009-03-09T16:30:00Z,29.4012,-89.0355,1.0,33.438,11111222 
WAVCIS,ioos:station:WAVCIS:CSI16:2,2009-03-09T16:45:00Z,29.4012,-89.0355,1.0,33.44,11111222 